Погода Ярково

Погода Ярково : погода сейчас, прогноз погоды и архив. Всё, что Вы хотите узнать о погоде Ярково!

Хотите узнать прогноз погоды Ярково? Тогда Вам сюда: Погода Ярково

Поиск расширенной информации на нашем сайте:

Другие новости

Новости СМИ2

Главная страница сайта

Новости сайта

03.07.2017

Напоминаем, что на нашем специализированном сайте Метеоцентр.Азия вы можете получить высокодетализированные автоматические прогнозы погоды по пунктам России, СНГ и мира в авиационном формате (включающие направление и скорость ветра, видимость, явления погоды, количество и форму облачности, нижнюю и верхнюю границу облачности).

Рекомендуем: relux ватные валочки

Погода Ярково - сегодня

Время (UTC), дата Ветер
(°,м/с) 
Видим.   Явления Облачность Т
(°С)
Тd
(°С)
f(%) Тe
(°С)
Pmin
(гПа)
dP
(гПа)
Po
(мм)
O2
(г/м3)
Тmin Tmax R s Состояние
почвы
21 21.11.17 200 (Ю) 10 км    ясно 
-2 -6.7 70 -4  1024.9  -0.5  764  311           
00 22.11.17 170 (Ю) 10 км    ясно 
-1.5 -7.4 64 -3  1023.5  -1.5  763  310           
03 22.11.17 180 (Ю) 10 км    10/0 средняя, верхняя 
[Ac As|Cs]
-2.8 -8.1 67 -5  1023.3  -0.2  763  311  -2.8      15  равномерный
сухой снег
100% 
06 22.11.17 200 (Ю) 10 км    10/0 верхняя 
[Cc]
-2 -7 69 -3  1023.3  763  310  -3.4         
09 22.11.17 190 (Ю) 10 км    10/0 верхняя 
[Cc]
-0.5 -6.3 65 -1  1022.8  -0.5  762  308           
12 22.11.17 180 (Ю) 10 км    10/0 верхняя 
[Cs]
-1.8 -6.6 70 -3  1022.6  -0.2  762  310           
15 22.11.17 170 (Ю) 10 км    ясно 
-2.9 -6.9 74 -4  1022.5  -0.1  762  311    -0.5       
18 22.11.17 170 (Ю) 10 км    ясно 
-4 -7.1 79 -5  1022  -0.5  762  312           
21 22.11.17 180 (Ю) 10 км    ясно 
-4.6 -7.2 82 -6  1022  -0.1  762  313           
00 23.11.17 190 (Ю) 10 км    ясно 
-4.5 -7.1 82 -6  1021.9  -0.1  762  313           
03 23.11.17 180 (Ю) 10 км    ясно 
-5.1 -7.4 84 -6  1022.1  0.2  762  314  -5.1      15  равномерный
сухой снег
100% 
06 23.11.17 180 (Ю) 10 км    ясно 
-3 -6.6 76 -4  1022.2  0.2  762  311  -5.5         
09 23.11.17 190 (Ю) 10 км    ясно 
+1.3 -5.9 59 +2  1021.9  -0.2  762  306           
12 23.11.17 160 (Ю) 10 км    3/3 1000 м 
[Sc diur, vesp]
-1.3 -7.2 64 -2  1021.9  0.1  762  309           
15 23.11.17 170 (Ю) 10 км    3/3 1000 м 
[Sc]
-1.9 -7.8 64 -3  1021.7  -0.3  761  310    +1.6       
18 23.11.17 180 (Ю) 10 км    ясно 
-2 -7.8 64 -3  1021.7  761  310           
21 23.11.17 170 (Ю) 10 км    ясно 
-2.1 -7.5 66 -3  1020.8  -0.9  761  310           
00 24.11.17 180 (Ю) 10 км    ясно 
-2 -8.2 62 -3  1020.3  -0.5  760  310           
03 24.11.17 180 (Ю) 10 км    ясно 
-2.3 -9 60 -4  1019  -1.3  759  310  -2.7      15  равномерный
сухой снег
100% 
06 24.11.17 200 (Ю) 10 км    6/0 верхняя 
[Ci fib]
-1.3 -8.8 57 -2  1019  759  308  -3         
09 24.11.17 220 (ЮЗ) 10 км    8/0 верхняя 
[Ci sp]
+0.9 -8.5 49 +2  1018.2  -0.8  759  306           
12 24.11.17 260 (З) 10 км    3/0 верхняя 
[Ci fib]
-2.7 -8.6 64 -2  1018.3  759  310           
15 24.11.17 тихо ()   10 км    ясно 
-5.8 -9.5 75 -6  1017.7  -0.6  758  313    +1       
18 24.11.17 290 (З) 10 км    ясно 
-10.1 -11.6 89 -10  1018.2  0.4  759  319           
21 24.11.17 010 (С) 10 км    ясно 
-7.9 -9.3 90 -9  1019  0.8  759  316           
Время (UTC), дата Ветер
(°,м/с) 
Видим.   Явления Облачность Т
(°С)
Тd
(°С)
f(%) Тe
(°С)
Pmin
(гПа)
dP
(гПа)
Po
(мм)
O2
(г/м3)
Тmin Tmax R s Состояние
почвы

Для получения пояснительной информации подведите курсор к названию столбца.

ПОГОДА Ярково - архив

Всё, что Вы хотите узнать о погоде Ярково - удобно и подробно!

Выберите нужную дату (начиная с 1 января 2015* года) и нажмите кнопку "Найти".
Будут отображены архивные сводки погоды по пункту Ярково, начиная с указанной даты.


Отображать данные в формате CSV (для использования в таблицах Excel)


Внимание! Наш архив погоды предназначен исключительно для личного некоммерческого использования в познавательных целях. Если Вам необходимы официальные справки о состоянии погоды (для производственных, юридических, коммерческих и т.п. целей), обращайтесь в органы Росгидромета.

*Примечание: данная дата относится к архиву по метеостанциям СССР (Россия, СНГ, Балтия).
Архив по метеостанциям Зарубежной Европы и Азии (кроме Китая) хранится 10 дней, по другим регионам земного шара (Китай, Африка, Америка, Австралия, Океания) - 1 день.

Ярково - район местоположения метеостанции


Название, широта, долгота, высота метеостанции:
Ярково 57.4°ш. 67.1°д. 50 м над ур. моря [Российская Федерация]

Дополнительная информация

В oтличие oт бoльшинства пoгoдных сайтoв мы публикуем пoдрoбную метеoинфoрмацию в детальнoм прoфессиoнальнoм фoрмате.

Характеристики температуры и влажнoсти вoздуха измеряются на высoте 2 м в тени вдали oт зданий и деревьев.
Скoрoсть ветра измеряется на высoте 10 м (на урoвне рoста челoвека скoрoсть ветра ниже в 1.5-2 раза). Если метеoстанция нахoдится в гoрoде или в лесу, тo скoрoсть ветра занижена на 2-4 м/с пo сравнению с oткрытым местoм. Скoрoсть ветра над акватoриями крупных рек и oзёр, а также на вершинах хoлмoв на 2-5 м/с выше, чем в oбычных услoвиях.
Атмoсфернoе давление в разных тoчках местнoсти мoжет значительнo oтличаться oт давления на метеoстанции, в зависимoсти oт услoвий рельефа (при пoдъёме на 10 м давление пoнижается примернo на 1 мм рт.ст.).